NOAA 16 DEB, 41291

Orbit data source: Space-Track

NOAA 16 DEB, 41291 is space debris in SSO originally from a launch on Thu, 21 Sep 2000 UTC launched from the Air Force Western Test Range (AFWTR). Debris objects in space refer to the collection of defunct objects orbiting the Earth. Examples of debris include non-operational satellites, rocket bodies, and fragments generated from explosions, collisions, or faulty payload assembly.

Loading next visibility...
Identifier
41291, 2000-055GT
Orbit
SSO
Country
Flag of USUS
Related business
Manufacturer
Unknown
Mission
Spacecraft
Bus & Motor
Unknown
Mass
Unknown
Launch date (UTC)
2000-09-21 (25 years ago)
Launch vehicle
Unknown
Launch site
Air Force Western Test Range (AFWTR)
Object type
Payload
Rocket body
Debris
Shape & HBR
Unknown
Radar Cross Section
Small (<0.1 m²)

Expand to show TLE details & history
Last TLE update: 2 days ago

TLE from 2 days ago
0 NOAA 16 DEB
1 41291U 00055GT  25257.07803242  .00005020  00000-0  12373-2 0  9999
2 41291  99.0007 124.6926 0036170 159.1734 201.0942 14.52262133510543
Epoch: 2025-09-14T01:52Z
TLE epoch observation values (Epoch: 2025-09-14T01:52:22.001Z)
Latitude
-0.00004°
Longitude
103.29873°
Altitude
745.183 km
Speed
7.47 km/s
True Right ascension
08h 18m 46s
True Declination
0° 00' 00"
Sunlit
Object was in daylight at epoch
Visualization orbit readout
Latitude
Unknown
Longitude
Unknown
Altitude
Unknown
Speed
Unknown
Apparent Right ascension
Unknown
Apparent Declination
Unknown
Sunlit
N/A
Visualization observer readout
Local Sidereal Time
17:10:50
Azimuth
Unknown
Elevation
Unknown
Doppler factor
Unknown
Orbital elements
Apogee altitude
741.057 km
Perigee altitude
689.742 km
Semi-major axis
7,093.537 km
Eccentricity
0.00362
Inclination
99.0007°
RAAN
124.6926°
Arg. of periapsis
159.1734°
True anomaly
200.94566°
Mean anomaly
201.0942°
Eccentric anomaly
201.01987°
Mean motion
3.63286 °/min
Orbital period
99.1 mins
BSTAR
0.0012373
Loading maneuver chart data...
Computing Atmospheric mass density...
Loading historical data...
Loading historical data...
Loading historical data...
Loading historical data...
Loading historical data...
Loading historical data...
Loading historical data...

Documentation

Showing up to 5 results
|